Weather History for Casper, WY

Change the Weather History Date:

Sunday, March 10, 2013

  Actual Average Record
Temperature  
Mean Temperature 31 °F 34 °F  
Max Temperature 50 °F 46 °F 70 °F (1972)
Min Temperature 11 °F 21 °F -14 °F (1948)
Degree Days  
Heating Degree Days 34 31  
Month to date heating degree days 324 328  
Since 1 July heating degree days 5374 5776  
Cooling Degree Days 0 0  
Month to date cooling degree days 0 0  
Year to date cooling degree days 0 0  
Moisture  
Dew Point 14 °F    
Average Humidity 52    
Maximum Humidity 84    
Minimum Humidity 20    
Precipitation  
Precipitation 0.00 in 0.02 in 0.37 in (1978)
Month to date precipitation T 0.22  
Year to date precipitation 0.77 1.30  
Snow  
Snow 0.00 in 0.30 in - ()
Month to date snowfall 0.4 3.1  
Since 1 July snowfall 33.1 52.5  
Snow Depth 0.00 in    
Sea Level Pressure  
Sea Level Pressure 30.15 in    
Wind  
Wind Speed 8 mph (WSW)    
Max Wind Speed 18 mph    
Max Gust Speed 26 mph    
Visibility 10 miles    
Events      
T = Trace of Precipitation, MM = Missing Value Source: NWS Daily Summary

Daily Weather History Graph

Daily Weather History Graph

Search for Another Location

Airport:

Trip Planner

Search our weather history database for the weather conditions in past years. The results will help you decide how hot, cold, wet, or windy it might be!

Date:

Astronomy

Mar. 10, 2013 Rise Set
Actual Time 7:26 AM MDT 7:06 PM MDT
Civil Twilight 6:57 AM MDT 7:34 PM MDT
Nautical Twilight 6:25 AM MDT 8:07 PM MDT
Astronomical Twilight 5:51 AM MDT 8:41 PM MDT
Moon 6:28 AM MDT (3/10) 6:17 PM MDT (3/10)
Length of Visible Light 12h 37m
Length of Day
11h 40m
Waning Crescent, 1% of the Moon is Illuminated
Mar 10
Waning Crescent
Mar 11
New
Mar 19
First Quarter
Mar 27
Full
Apr 2
Last Quarter

Hourly Weather History & Observations

Time (MDT) Temp. Windchill Dew Point Humidity Pressure Visibility Wind Dir Wind Speed Gust Speed Precip Events Conditions
12:53 AM 16.0 °F 7.4 °F 10.0 °F 77% 30.26 in - NW 5.8 mph - N/A   Clear
1:53 AM 17.1 °F 6.6 °F 10.9 °F 77% 30.25 in - WNW 8.1 mph - N/A   Clear
3:53 AM 15.1 °F 7.7 °F 10.0 °F 80% 30.25 in - SW 4.6 mph - N/A   Clear
4:53 AM 15.1 °F - 10.9 °F 84% 30.27 in 10.0 mi Calm Calm - N/A   Clear
5:53 AM 12.2 °F 6.1 °F 8.6 °F 85% 30.16 in 10.0 mi West 3.5 mph - N/A   Clear
6:53 AM 12.0 °F 4.1 °F 9.0 °F 88% 30.30 in 10.0 mi West 4.6 mph - N/A   Clear
7:53 AM 15.1 °F 6.4 °F 10.9 °F 84% 30.31 in 10.0 mi West 5.8 mph - N/A   Clear
8:53 AM 26.1 °F 17.6 °F 18.0 °F 71% 30.27 in 10.0 mi WSW 8.1 mph - N/A   Clear
9:53 AM 30.9 °F 22.2 °F 17.1 °F 57% 30.26 in 10.0 mi SW 10.4 mph - N/A   Clear
10:53 AM 36.0 °F 27.5 °F 17.1 °F 46% 30.25 in 10.0 mi WSW 12.7 mph - N/A   Clear
11:53 AM 37.9 °F 29.6 °F 14.0 °F 38% 30.25 in 10.0 mi SW 13.8 mph - N/A   Clear
12:53 PM 42.1 °F 37.1 °F 12.9 °F 31% 30.21 in 10.0 mi SW 8.1 mph 16.1 mph N/A   Clear
1:53 PM 44.1 °F 38.1 °F 15.1 °F 31% 30.18 in 10.0 mi SW 11.5 mph - N/A   Clear
2:53 PM 46.9 °F - 16.0 °F 29% 30.13 in 10.0 mi SW 15.0 mph 18.4 mph N/A   Clear
3:53 PM 48.9 °F - 16.0 °F 27% 30.10 in 10.0 mi SSW 17.3 mph 20.7 mph N/A   Clear
4:05 PM 48.2 °F - 15.8 °F 27% 30.04 in 10.0 mi SSW 12.7 mph 21.9 mph N/A   Clear
4:53 PM 48.9 °F - 16.0 °F 27% 30.08 in 10.0 mi South 15.0 mph - N/A   Clear
5:53 PM 50.0 °F - 10.9 °F 21% 30.06 in 10.0 mi West 11.5 mph - N/A   Clear
6:53 PM 42.1 °F 36.6 °F 10.0 °F 27% 30.09 in 10.0 mi West 9.2 mph - N/A   Clear
7:53 PM 33.1 °F 25.5 °F 10.9 °F 40% 30.12 in 10.0 mi WSW 9.2 mph - N/A   Clear
8:53 PM 33.1 °F 30.0 °F 12.9 °F 43% 30.07 in 10.0 mi Variable 3.5 mph - N/A   Clear
9:53 PM 36.0 °F 32.1 °F 18.0 °F 48% 30.04 in 10.0 mi SSW 4.6 mph - N/A   Clear
10:53 PM 37.9 °F 34.4 °F 21.9 °F 53% 30.01 in 10.0 mi WSW 4.6 mph - N/A   Mostly Cloudy
11:53 PM 37.0 °F 33.3 °F 21.9 °F 54% 29.99 in 10.0 mi WNW 4.6 mph - N/A   Overcast
12:53 AM 39.0 °F 32.3 °F 21.9 °F 50% 29.94 in 10.0 mi SSW 10.4 mph - N/A   Overcast